This is the latest recevied weather packets stored in our database for station/object N4DLW-3. If no packets are shown the sender has not sent any weather packets the latest 10 day(s).
| Time | Temp. | Humidity | Pressure | Rain* | Wind** | Luminosity | Snow |
|---|---|---|---|---|---|---|---|
| 1778011174 | 31.11° C | 46% | 1013.7 hPa | 0 mm | - | - | - |
| 1778010887 | 30.56° C | 46% | 1013.7 hPa | 0 mm | - | - | - |
| 1778010576 | 30.56° C | 46% | 1013.7 hPa | 0 mm | - | - | - |
| 1778010288 | 31.11° C | 46% | 1013.7 hPa | 0 mm | - | - | - |
| 1778009977 | 31.11° C | 45% | 1013.9 hPa | 0 mm | - | - | - |
| 1778009684 | 31.11° C | 46% | 1013.9 hPa | 0 mm | - | - | - |
| 1778009377 | 31.11° C | 45% | 1013.8 hPa | 0 mm | - | - | - |
| 1778009084 | 31.11° C | 46% | 1013.9 hPa | 0 mm | - | - | - |
| 1778008772 | 30.56° C | 48% | 1013.9 hPa | 0 mm | - | - | - |
| 1778008472 | 30.56° C | 47% | 1013.9 hPa | 0 mm | - | - | - |
| 1778008187 | 30.56° C | 50% | 1014 hPa | 0 mm | - | - | - |
| 1778007875 | 30.56° C | 48% | 1014.2 hPa | 0 mm | - | - | - |
| 1778007591 | 30.56° C | 49% | 1014.2 hPa | 0 mm | - | - | - |
| 1778007278 | 30.56° C | 48% | 1014.2 hPa | 0 mm | - | - | - |
| 1778006987 | 30.56° C | 49% | 1014.3 hPa | 0 mm | - | - | - |
| 1778006681 | 30.56° C | 49% | 1014.3 hPa | 0 mm | - | - | - |
| 1778006370 | 30.56° C | 51% | 1014.3 hPa | 0 mm | - | - | - |
| 1778006076 | 30.56° C | 49% | 1014.3 hPa | 0 mm | - | - | - |
| 1778005769 | 30.56° C | 48% | 1014.4 hPa | 0 mm | - | - | - |
| 1778005477 | 31.11° C | 46% | 1014.4 hPa | 0 mm | - | - | - |
| 1778005191 | 31.11° C | 48% | 1014.5 hPa | 0 mm | - | - | - |
| 1778004885 | 31.11° C | 48% | 1014.6 hPa | 0 mm | - | - | - |
| 1778004580 | 31.11° C | 50% | 1014.7 hPa | 0 mm | - | - | - |
| 1778004274 | 30.56° C | 49% | 1014.7 hPa | 0 mm | - | - | - |
| 1778003986 | 30.56° C | 50% | 1014.8 hPa | 0 mm | - | - | - |
* Rain latest hour (hover to see other rain measurements)
** Current wind speed in m/s (hover to see current wind gust speed)